Location: Peterborough
(44.3091°N, 78.3197°W)
Time: 03:26:08
(UTC-04:00)

S-56A Canister/Altair - Pass Details

Date: 22 March 2023
Orbit: 639 x 2492 km, 38.9° (Epoch: 08 June)

Event Time Altitude Azimuth Distance (km) Brightness Sun altitude
Rises 23:32:28 0° 265° (W) 5,740 12.3 -38.8°
Reaches altitude 10° 23:35:59 10° 263° (W) 4,890 11.8 -39.2°
Enters shadow 23:49:42 70° 202° (SSW) 2,605 9.8 -40.5°
Maximum altitude 23:50:28 71° 184° (S) 2,594 - -40.6°
Drops below altitude 10° 00:04:40 10° 105° (ESE) 4,802 - -41.8°
Sets 00:08:05 0° 103° (ESE) 5,635 - -42.0°
